CDT,Max TemperatureF,Mean TemperatureF,Min TemperatureF,Max Dew PointF,MeanDew PointF,Min DewpointF,Max Humidity, Mean Humidity, Min Humidity, Max Sea Level PressureIn, Mean Sea Level PressureIn, Min Sea Level PressureIn, Max VisibilityMiles, Mean VisibilityMiles, Min VisibilityMiles, Max Wind SpeedMPH, Mean Wind SpeedMPH, Max Gust SpeedMPH,PrecipitationIn, CloudCover, Events, WindDirDegrees
2013-4-1,28,22,17,14,10,5,81,60,43,30.10,30.02,29.87,10,10,4,24,13,31,0.00,4,Snow,314
2013-4-2,34,22,12,11,7,3,71,49,33,30.30,30.20,30.10,10,10,10,18,7,28,0.00,1,,312
2013-4-3,39,24,10,15,8,3,73,48,24,30.45,30.33,30.14,10,10,10,14,4,17,0.00,0,,188
2013-4-4,46,38,27,28,21,16,72,51,35,30.11,29.99,29.90,10,10,10,17,9,26,0.00,3,,280
2013-4-5,39,30,21,21,15,8,81,54,28,30.27,30.20,30.10,10,10,10,10,4,,0.00,1,,50
2013-4-6,39,34,28,36,29,23,100,88,70,30.16,29.84,29.47,10,5,1,16,9,23,0.15,8,Rain-Snow,136
2013-4-7,41,36,32,34,30,27,93,79,63,30.00,29.77,29.47,10,9,4,21,9,28,0.00,6,Rain-Snow,331
2013-4-8,36,33,30,34,32,27,100,92,81,30.05,29.91,29.79,10,6,1,7,3,,0.32,8,Rain,84
2013-4-9,39,34,28,36,31,21,100,86,57,30.19,30.08,30.00,10,7,0,16,4,23,0.00,7,Fog,1
2013-4-10,41,34,30,23,19,12,75,56,36,30.20,30.15,30.11,10,10,10,15,10,23,0.00,3,,25
2013-4-11,35,30,26,25,21,7,93,72,32,30.08,29.92,29.76,10,6,0,17,10,31,0.07,6,Fog-Snow,75
2013-4-12,33,30,26,27,24,21,93,85,72,29.79,29.67,29.62,10,3,0,13,7,20,0.05,8,Fog-Snow,43
2013-4-13,37,28,21,28,24,17,96,81,61,29.97,29.75,29.66,10,6,1,16,5,30,0.00,7,Snow,310
2013-4-14,39,26,14,29,24,12,93,82,52,30.04,29.92,29.76,10,7,0,14,6,22,0.04,6,Fog-Rain-Snow,103
2013-4-15,52,42,33,36,31,23,100,75,39,29.87,29.70,29.59,10,8,0,20,8,37,0.23,6,Fog-Rain,204
2013-4-16,48,40,30,28,25,23,75,60,40,30.38,30.10,29.88,10,10,10,15,6,23,0.00,6,,290
2013-4-17,42,32,23,31,27,20,93,71,51,30.41,30.28,30.04,10,10,10,13,4,18,0.00,5,,94
2013-4-18,39,36,33,37,34,32,100,93,87,30.00,29.60,29.23,10,4,2,10,6,17,0.18,8,Rain,28
2013-4-19,36,28,21,34,24,13,100,82,59,29.83,29.32,29.06,10,5,1,29,11,44,0.01,8,Rain-Snow,305
2013-4-20,36,26,17,18,13,9,86,64,34,30.43,30.10,29.82,10,9,2,16,11,24,0.00,3,Snow,318
2013-4-21,45,32,21,27,22,16,88,67,47,30.51,30.40,30.23,10,10,10,22,8,28,0.00,5,,153
2013-4-22,43,38,34,41,37,29,100,91,82,30.22,30.17,30.09,10,7,2,9,6,,0.22,8,Rain,129
2013-4-23,42,35,26,34,30,23,100,81,60,30.06,29.94,29.85,10,8,2,21,8,28,0.02,7,Rain,337
2013-4-24,51,34,19,25,19,13,92,54,23,30.00,29.94,29.87,10,10,10,13,3,21,0.00,2,,253
2013-4-25,50,42,33,34,28,16,96,71,28,30.23,29.99,29.82,10,8,0,16,8,24,0.15,6,Fog-Rain-Snow,292
2013-4-26,66,48,30,40,32,24,86,63,33,30.24,30.15,30.06,10,10,7,17,4,24,0.01,3,Rain,168
2013-4-27,73,52,32,46,40,30,96,65,31,30.16,30.08,29.99,10,10,8,13,4,21,0.00,2,,160
2013-4-28,72,54,35,45,39,35,100,66,31,29.99,29.88,29.76,10,7,1,16,4,23,0.00,1,,160
2013-4-29,70,58,48,54,50,42,100,78,54,29.80,29.77,29.73,10,9,4,14,6,18,0.03,7,Rain,150
2013-4-30,73,60,46,57,51,45,100,82,55,29.90,29.70,29.61,10,6,2,17,8,28,0.00,5,Rain-Thunderstorm,137